When you browse on this site, cookies collect data to enhance your experience and personalize the content and advertising you see.
Visit our Privacy Policy to learn more. By continuing to use the site, you agree to this use of cookies and data.
  • In Lithuania
  • List of Countries
  • For 7 days
  • Water Temperature
  • Weather Map
  • Weather Widgets
  • user-avatar
    Login

    Hourly Weather Biskira

    Today, 31 March, Tuesday

    Time Temperature Precipitation Wind Pressure Humidity
    00:00 +17°C° 0 mm 3 mps 752 mmHg 51%
    01:00 +17°C° 0 mm 3 mps 752 mmHg 52%
    02:00 +17°C° 0 mm 3 mps 751 mmHg 52%
    03:00 +16°C° 0 mm 3 mps 751 mmHg 53%
    04:00 +15°C° 0 mm 4 mps 751 mmHg 53%
    05:00 +15°C° 0 mm 4 mps 751 mmHg 53%
    06:00 +15°C° 0 mm 4 mps 752 mmHg 53%
    07:00 +17°C° 0 mm 4 mps 752 mmHg 49%
    08:00 +17°C° 0 mm 5 mps 752 mmHg 44%
    09:00 +19°C° 0 mm 6 mps 752 mmHg 40%
    10:00 +20°C° 0 mm 5 mps 752 mmHg 38%
    11:00 +21°C° 0 mm 5 mps 751 mmHg 35%
    12:00 +22°C° 0 mm 5 mps 751 mmHg 33%
    13:00 +23°C° 0 mm 5 mps 751 mmHg 31%
    14:00 +23°C° 0 mm 5 mps 750 mmHg 30%
    15:00 +25°C° 0 mm 5 mps 750 mmHg 28%
    16:00 +23°C° 0 mm 5 mps 749 mmHg 30%
    17:00 +22°C° 0 mm 5 mps 749 mmHg 33%
    18:00 +21°C° 0 mm 6 mps 749 mmHg 35%
    19:00 +21°C° 0 mm 6 mps 750 mmHg 36%
    20:00 +21°C° 0 mm 7 mps 750 mmHg 37%
    21:00 +20°C° 0 mm 7 mps 751 mmHg 38%
    22:00 +20°C° 0 mm 7 mps 750 mmHg 38%
    23:00 +20°C° 0 mm 7 mps 750 mmHg 38%

    Tomorrow, 1 April, Wednesday

    Time Temperature Precipitation Wind Pressure Humidity
    00:00 +19°C° 0 mm 6 mps 750 mmHg 38%
    01:00 +19°C° 0 mm 6 mps 750 mmHg 39%
    02:00 +19°C° 0 mm 5 mps 750 mmHg 39%
    03:00 +19°C° 0 mm 5 mps 749 mmHg 40%
    04:00 +19°C° 0 mm 5 mps 749 mmHg 40%
    05:00 +17°C° 0 mm 5 mps 750 mmHg 40%
    06:00 +17°C° 0 mm 5 mps 750 mmHg 41%
    07:00 +20°C° 0 mm 5 mps 750 mmHg 37%
    08:00 +21°C° 0 mm 6 mps 750 mmHg 32%
    09:00 +22°C° 0 mm 7 mps 750 mmHg 28%
    10:00 +23°C° 0 mm 7 mps 749 mmHg 26%
    11:00 +24°C° 0 mm 7 mps 749 mmHg 24%
    12:00 +26°C° 0 mm 8 mps 748 mmHg 22%
    13:00 +27°C° 0 mm 7 mps 748 mmHg 21%
    14:00 +27°C° 0 mm 7 mps 747 mmHg 20%
    15:00 +27°C° 0 mm 6 mps 746 mmHg 19%
    16:00 +26°C° 0 mm 6 mps 746 mmHg 21%
    17:00 +26°C° 0 mm 5 mps 746 mmHg 23%
    18:00 +25°C° 0 mm 4 mps 745 mmHg 25%
    19:00 +23°C° 0 mm 4 mps 746 mmHg 26%
    20:00 +22°C° 0 mm 3 mps 746 mmHg 28%
    21:00 +23°C° 0 mm 2 mps 747 mmHg 29%
    22:00 +21°C° 0 mm 2 mps 747 mmHg 30%
    23:00 +21°C° 0 mm 2 mps 747 mmHg 30%

    Day after tomorrow, 2 April, Thursday

    Time Temperature Precipitation Wind Pressure Humidity
    00:00 +21°C° 0 mm 3 mps 747 mmHg 31%
    01:00 +20°C° 0 mm 4 mps 747 mmHg 36%
    02:00 +19°C° 0 mm 5 mps 747 mmHg 42%
    03:00 +17°C° 0 mm 6 mps 747 mmHg 47%
    04:00 +17°C° 0 mm 5 mps 747 mmHg 48%
    05:00 +17°C° 0 mm 5 mps 747 mmHg 49%
    06:00 +18°C° 0 mm 4 mps 747 mmHg 50%
    07:00 +19°C° 0 mm 4 mps 747 mmHg 46%
    08:00 +20°C° 0 mm 4 mps 748 mmHg 43%
    09:00 +22°C° 0 mm 4 mps 748 mmHg 39%
    10:00 +23°C° 0 mm 4 mps 748 mmHg 36%
    11:00 +24°C° 0 mm 3 mps 747 mmHg 33%
    12:00 +25°C° 0 mm 3 mps 747 mmHg 31%
    13:00 +26°C° 0 mm 3 mps 747 mmHg 29%
    14:00 +26°C° 0 mm 3 mps 746 mmHg 27%
    15:00 +26°C° 0 mm 4 mps 746 mmHg 25%
    16:00 +26°C° 0 mm 4 mps 746 mmHg 26%
    17:00 +25°C° 0 mm 4 mps 746 mmHg 28%
    18:00 +24°C° 0 mm 3 mps 746 mmHg 29%
    19:00 +24°C° 0 mm 3 mps 747 mmHg 30%
    20:00 +22°C° 0 mm 3 mps 747 mmHg 32%
    21:00 +22°C° 0 mm 3 mps 748 mmHg 34%
    22:00 +21°C° 0 mm 3 mps 748 mmHg 37%
    23:00 +21°C° 0 mm 3 mps 748 mmHg 40%

    3 April, Friday

    Time Temperature Precipitation Wind Pressure Humidity
    00:00 +20°C° 0 mm 3 mps 747 mmHg 43%
    01:00 +19°C° 0.1 mm 3 mps 747 mmHg 51%
    02:00 +19°C° 0.1 mm 4 mps 747 mmHg 58%
    03:00 +17°C° 0.1 mm 5 mps 746 mmHg 66%
    04:00 +17°C° 1.6 mm 4 mps 747 mmHg 70%
    05:00 +17°C° 1.6 mm 4 mps 747 mmHg 75%
    06:00 +15°C° 1.6 mm 4 mps 747 mmHg 79%
    07:00 +14°C° 4 mm 4 mps 747 mmHg 81%
    08:00 +14°C° 4 mm 4 mps 748 mmHg 82%
    09:00 +13°C° 4 mm 4 mps 748 mmHg 84%
    10:00 +13°C° 1.4 mm 4 mps 748 mmHg 81%
    11:00 +14°C° 1.4 mm 4 mps 748 mmHg 79%
    12:00 +14°C° 1.4 mm 4 mps 748 mmHg 77%
    13:00 +14°C° 0.4 mm 3 mps 748 mmHg 76%
    14:00 +14°C° 0.4 mm 3 mps 747 mmHg 75%
    15:00 +14°C° 0.4 mm 3 mps 747 mmHg 75%
    16:00 +14°C° 0.7 mm 4 mps 747 mmHg 75%
    17:00 +14°C° 0.7 mm 5 mps 747 mmHg 75%
    18:00 +14°C° 0.7 mm 6 mps 748 mmHg 75%
    19:00 +14°C° 0.4 mm 6 mps 748 mmHg 73%
    20:00 +14°C° 0.4 mm 5 mps 749 mmHg 72%
    21:00 +14°C° 0.4 mm 5 mps 749 mmHg 70%
    22:00 +14°C° 0.1 mm 4 mps 749 mmHg 72%
    23:00 +14°C° 0.1 mm 3 mps 749 mmHg 73%

    4 April, Saturday

    Time Temperature Precipitation Wind Pressure Humidity
    00:00 +15°C° 0.1 mm 2 mps 750 mmHg 74%
    01:00 +14°C° 0.1 mm 3 mps 750 mmHg 74%
    02:00 +14°C° 0.1 mm 3 mps 750 mmHg 74%
    03:00 +14°C° 0.1 mm 3 mps 750 mmHg 74%
    04:00 +14°C° 0 mm 3 mps 750 mmHg 73%
    05:00 +14°C° 0 mm 3 mps 750 mmHg 72%
    06:00 +14°C° 0 mm 3 mps 751 mmHg 70%
    07:00 +16°C° 0 mm 3 mps 751 mmHg 64%
    08:00 +17°C° 0 mm 2 mps 751 mmHg 57%
    09:00 +19°C° 0 mm 2 mps 752 mmHg 50%
    10:00 +20°C° 0 mm 2 mps 752 mmHg 47%
    11:00 +20°C° 0 mm 2 mps 752 mmHg 45%
    12:00 +21°C° 0 mm 2 mps 752 mmHg 43%
    13:00 +21°C° 0 mm 2 mps 752 mmHg 42%
    14:00 +21°C° 0 mm 2 mps 752 mmHg 41%
    15:00 +22°C° 0 mm 1 mps 751 mmHg 41%
    16:00 +21°C° 0 mm 2 mps 752 mmHg 43%
    17:00 +21°C° 0 mm 2 mps 752 mmHg 45%
    18:00 +21°C° 0 mm 2 mps 752 mmHg 47%
    19:00 +20°C° 0 mm 2 mps 753 mmHg 49%
    20:00 +20°C° 0 mm 2 mps 754 mmHg 51%
    21:00 +20°C° 0 mm 2 mps 754 mmHg 53%
    22:00 +19°C° 0 mm 2 mps 755 mmHg 55%
    23:00 +19°C° 0 mm 2 mps 755 mmHg 57%

    5 April, Sunday

    Time Temperature Precipitation Wind Pressure Humidity
    00:00 +19°C° 0 mm 2 mps 755 mmHg 60%
    01:00 +18°C° 0 mm 3 mps 755 mmHg 63%
    02:00 +17°C° 0 mm 4 mps 755 mmHg 67%
    03:00 +15°C° 0 mm 5 mps 754 mmHg 70%
    04:00 +15°C° 0 mm 4 mps 755 mmHg 71%
    05:00 +15°C° 0 mm 4 mps 755 mmHg 71%
    06:00 +15°C° 0 mm 4 mps 755 mmHg 72%
    07:00 +17°C° 0 mm 4 mps 755 mmHg 67%
    08:00 +17°C° 0 mm 4 mps 755 mmHg 62%
    09:00 +18°C° 0 mm 4 mps 755 mmHg 58%
    10:00 +19°C° 0 mm 3 mps 755 mmHg 55%
    11:00 +20°C° 0 mm 3 mps 755 mmHg 51%
    12:00 +21°C° 0 mm 3 mps 755 mmHg 48%
    13:00 +21°C° 0 mm 3 mps 754 mmHg 46%
    14:00 +23°C° 0 mm 2 mps 754 mmHg 44%
    15:00 +23°C° 0 mm 2 mps 753 mmHg 41%
    16:00 +23°C° 0 mm 2 mps 753 mmHg 42%
    17:00 +23°C° 0 mm 2 mps 753 mmHg 43%
    18:00 +23°C° 0 mm 2 mps 753 mmHg 44%
    19:00 +21°C° 0 mm 3 mps 754 mmHg 46%
    20:00 +21°C° 0 mm 3 mps 754 mmHg 47%
    21:00 +21°C° 0 mm 3 mps 755 mmHg 49%
    22:00 +20°C° 0 mm 3 mps 755 mmHg 51%
    23:00 +20°C° 0 mm 3 mps 754 mmHg 52%
    Show more